IRIDIUM 124

Last updated on Sun Jun 21 2026 00:03:14 GMT+0000 (Coordinated Universal Time)

1 42810U 17039H 26171.38027287 .00000269 00000+0 74034-4 0 9997 2 42810 86.4485 289.0234 0002200 94.0030 266.1422 14.43279693475579
UTC large
Height (km)
Speed (km/s)
/
Latitude / Longitude
Inclination (degrees)
Orbital Period (minutes)
Azimuth
Elevation
Range (km)
Doppler Factor

Next 0 passes for location: London (51.5072 / 0.1276)

No passes found over London.
IRIDIUM 124